N8IR-19 Weather Reports


time (UTC)temp
C
wind
direction
speed
KPH
gust
KPH
rain 1hr
cm
rain 24hr
cm
rain mn
cm
humidity
%
barometer
mb
20260506135917 10 338 11.3 14.5 0.00 3.05 0.53 48 991.5
20260506135418 10 293 8.0 12.9 0.00 3.05 0.53 47 991.6
20260506134917 10 270 9.7 17.7 0.00 3.05 0.53 48 991.4
20260506134420 10 270 8.0 11.3 0.00 3.05 0.53 49 991.3
20260506133918 10 270 11.3 14.5 0.00 3.05 0.53 48 991.3
20260506133421 10 270 8.0 11.3 0.00 3.05 0.53 48 991.2
20260506132920 9 270 8.0 11.3 0.00 3.05 0.53 48 991.3
20260506132420 9 248 8.0 11.3 0.00 3.05 0.53 48 991.3
20260506131938 9 248 9.7 11.3 0.00 3.05 0.53 48 991.1
20260506130920 9 270 8.0 11.3 0.00 3.05 0.53 48 991.1
20260506130420 9 270 12.9 14.5 0.00 3.05 0.53 48 991.1
20260506125920 9 270 11.3 14.5 0.00 3.05 0.53 49 990.9
20260506125421 8 270 11.3 16.1 0.00 3.05 0.53 48 990.7
20260506124920 8 248 11.3 12.9 0.00 3.05 0.53 49 990.6
20260506124420 8 270 9.7 12.9 0.00 3.05 0.53 49 990.6
20260506123917 8 270 9.7 11.3 0.00 3.05 0.53 50 990.5
20260506123420 8 270 9.7 12.9 0.00 3.05 0.53 50 990.6
20260506122920 8 270 11.3 14.5 0.00 3.05 0.53 51 990.5
20260506122420 8 270 8.0 11.3 0.00 3.05 0.53 51 990.3
20260506121918 8 248 6.4 8.0 0.00 3.05 0.53 51 990.2
20260506121420 8 270 6.4 9.7 0.00 3.05 0.53 51 990.4
20260506120918 8 293 4.8 6.4 0.00 3.05 0.53 51 990.1
20260506120420 8 270 6.4 11.3 0.00 3.05 0.53 51 990.1
20260506115920 8 270 6.4 6.4 0.00 3.05 0.53 51 990.1
20260506115419 8 270 6.4 9.7 0.00 3.05 0.53 51 990.1
20260506114918 8 248 6.4 8.0 0.00 3.05 0.53 51 990.4
20260506114417 8 248 6.4 8.0 0.00 3.05 0.53 51 990.5
20260506113917 8 248 4.8 6.4 0.00 3.05 0.53 51 990.3
20260506113418 8 248 6.4 8.0 0.00 3.05 0.53 51 990.2
20260506112917 8 248 4.8 6.4 0.00 3.05 0.53 51 990.3
20260506112417 8 248 6.4 8.0 0.00 3.05 0.53 51 990.2
20260506111937 8 270 4.8 9.7 0.00 3.05 0.53 50 989.9
20260506111417 8 270 4.8 6.4 0.00 3.05 0.53 50 989.8
20260506110917 8 293 3.2 4.8 0.00 3.05 0.53 50 989.5
20260506110417 8 0.0 1.6 0.00 3.05 0.53 49 989.4
20260506105917 8 315 4.8 4.8 0.00 3.05 0.53 49 989.3
20260506105417 7 338 3.2 4.8 0.00 3.05 0.53 48 989.3
20260506104917 7 338 3.2 6.4 0.00 3.05 0.53 48 989.1
20260506104417 7 293 4.8 6.4 0.00 3.05 0.53 48 988.9
20260506103918 7 315 3.2 4.8 0.00 3.05 0.53 48 988.9
20260506103458 7 315 1.6 4.8 0.00 3.05 0.53 49 988.9
20260506102917 7 0.0 3.2 0.00 3.05 0.53 49 988.9
20260506102417 7 315 1.6 3.2 0.00 3.05 0.53 49 988.7
20260506101938 7 0.0 1.6 0.00 3.05 0.53 49 988.7
20260506101417 7 315 3.2 4.8 0.00 3.05 0.53 49 989.0
20260506100937 7 315 3.2 4.8 0.00 3.05 0.53 49 989.0
20260506100417 7 315 1.6 4.8 0.03 3.05 0.53 48 988.6
20260506095938 7 293 1.6 3.2 0.03 3.05 0.53 48 988.7
20260506095417 7 293 1.6 3.2 0.03 3.05 0.53 49 989.0
20260506094918 7 293 3.2 4.8 0.03 3.05 0.53 48 989.3
20260506094437 7 315 3.2 6.4 0.03 3.05 0.53 48 989.3
20260506093917 7 315 6.4 14.5 0.03 3.05 0.53 48 989.0
20260506093417 7 315 8.0 12.9 0.03 3.05 0.53 48 989.0
20260506092917 7 338 6.4 8.0 0.03 3.05 0.53 48 988.8
20260506092418 7 315 8.0 12.9 0.03 3.05 0.53 48 988.8
20260506091918 7 338 3.2 9.7 0.03 3.05 0.53 48 988.8
20260506091417 7 338 3.2 4.8 0.03 3.05 0.53 48 988.7
20260506090917 7 315 1.6 3.2 0.03 3.05 0.53 47 988.7
20260506090417 7 315 1.6 3.2 0.00 3.02 0.51 47 989.0
20260506085917 7 338 3.2 4.8 0.03 3.02 0.51 47 989.1
20260506085417 7 338 3.2 4.8 0.03 3.02 0.51 47 989.2
20260506084937 7 338 4.8 6.4 0.03 3.02 0.51 47 989.2
20260506084417 7 315 3.2 4.8 0.05 3.02 0.51 48 989.1
20260506083917 7 293 1.6 3.2 0.05 3.02 0.51 48 989.1
20260506083417 7 0.0 3.2 0.08 3.02 0.51 48 988.9
20260506082917 7 338 1.6 6.4 0.08 3.02 0.51 48 988.8
20260506082417 7 338 1.6 3.2 0.08 3.02 0.51 48 988.7
20260506081918 7 338 1.6 3.2 0.08 3.02 0.51 48 988.6
20260506081417 7 338 1.6 4.8 0.08 3.02 0.51 48 988.9
20260506080917 7 338 3.2 4.8 0.10 3.02 0.51 48 988.7
20260506080416 7 315 1.6 4.8 0.10 3.02 0.51 48 988.5
20260506073418 7 315 4.8 9.7 0.08 2.95 0.43 47 989.4
20260506072938 7 315 4.8 9.7 0.08 2.95 0.43 47 989.4
20260506072416 7 293 3.2 4.8 0.08 2.95 0.43 47 989.3
20260506071918 7 270 6.4 12.9 0.10 2.95 0.43 47 989.0
20260506071416 8 338 4.8 8.0 0.10 2.95 0.43 47 988.9
20260506070917 8 293 4.8 11.3 0.10 2.92 0.41 48 988.8
20260506070416 8 338 6.4 12.9 0.10 2.92 0.41 48 988.7
20260506062418 9 0 9.7 12.9 0.13 2.87 0.36 48 988.9
20260506061936 8 0 12.9 16.1 0.10 2.84 0.33 48 988.9
20260506061437 8 0 11.3 14.5 0.10 2.84 0.33 47 989.0
20260506060916 9 0 19.3 20.9 0.10 2.82 0.30 47 988.7
20260506060421 9 0 16.1 17.7 0.10 2.82 0.30 48 988.8
20260506051416 9 293 4.8 8.0 0.20 2.74 0.23 55 989.0
20260506050938 8 270 3.2 4.8 0.18 2.72 0.20 55 989.1
20260506050419 8 270 1.6 3.2 0.20 2.72 0.20 54 989.0
20260506044917 8 203 1.6 3.2 0.18 2.67 0.15 54 989.1
20260506044416 8 0.0 1.6 0.18 2.64 0.13 54 989.1
20260506043917 8 203 3.2 4.8 0.15 2.62 0.10 54 989.2
20260506043416 8 203 1.6 3.2 0.18 2.62 0.10 54 989.1
20260506042936 8 203 1.6 1.6 0.15 2.59 0.08 54 989.1
20260506042437 8 203 1.6 3.2 0.15 2.57 0.05 54 989.2
20260506041919 8 203 3.2 3.2 0.18 2.57 0.05 54 989.1
20260506041417 8 203 3.2 4.8 0.18 2.54 0.03 53 989.2
20260506040919 8 203 3.2 4.8 0.18 2.54 0.03 53 989.2
20260506040437 8 203 4.8 6.4 0.18 2.51 0.00 53 989.1
20260506035919 8 0.0 0.0 0.20 2.51 2.51 53 988.9
20260506035420 8 203 1.6 3.2 0.23 2.51 2.51 53 989.0
20260506034940 8 203 1.6 3.2 0.23 2.49 2.49 53 989.3
20260506034419 9 203 4.8 4.8 0.20 2.46 2.46 53 989.2
20260506033916 9 203 3.2 6.4 0.23 2.46 2.46 53 989.4
20260506033418 9 203 6.4 8.0 0.25 2.44 2.44 53 989.4
20260506032959 9 225 6.4 8.0 0.28 2.44 2.44 53 989.6
20260506032416 9 225 4.8 6.4 0.28 2.41 2.41 53 989.5
20260506031916 9 225 4.8 6.4 0.30 2.39 2.39 53 989.6
20260506031417 9 225 6.4 8.0 0.30 2.36 2.36 53 989.7
20260506030919 9 203 6.4 8.0 0.33 2.36 2.36 53 989.7
20260506030418 9 225 4.8 9.7 0.33 2.34 2.34 53 989.7
20260506025916 9 225 6.4 8.0 0.30 2.31 2.31 53 989.9
20260506025417 9 225 4.8 6.4 0.30 2.29 2.29 53 989.7
20260506024916 9 225 4.8 8.0 0.30 2.26 2.26 53 989.8
20260506024419 9 225 4.8 6.4 0.33 2.26 2.26 53 989.8
20260506023916 9 0.0 1.6 0.30 2.24 2.24 53 989.6
20260506023420 9 225 6.4 8.0 0.28 2.18 2.18 53 989.8
20260506022919 9 293 4.8 6.4 0.25 2.16 2.16 53 989.7
20260506022419 9 293 3.2 4.8 0.23 2.13 2.13 53 989.8
20260506021919 9 293 3.2 4.8 0.18 2.08 2.08 53 989.6
20260506021419 9 293 3.2 4.8 0.18 2.06 2.06 53 989.6
20260506021020 9 293 3.2 4.8 0.15 2.03 2.03 53 989.5
20260506020439 9 293 4.8 6.4 0.13 2.01 2.01 53 989.5
20260506015916 9 293 6.4 6.4 0.15 2.01 2.01 53 989.5
20260506015418 9 293 3.2 6.4 0.13 1.98 1.98 53 989.4
20260506014921 10 293 4.8 4.8 0.13 1.96 1.96 53 989.4
20260506014419 10 293 3.2 4.8 0.10 1.93 1.93 53 989.4
20260506013939 10 293 3.2 4.8 0.10 1.93 1.93 53 989.2
20260506013417 10 0.0 0.0 0.10 1.91 1.91 53 989.2
20260506012916 10 0.0 0.0 0.10 1.91 1.91 53 989.0
20260506012440 10 0.0 0.0 0.10 1.91 1.91 53 988.9
20260506011939 10 0.0 0.0 0.10 1.91 1.91 53 988.9
20260506011419 10 0.0 0.0 0.10 1.88 1.88 53 988.8
20260506010919 10 0.0 0.0 0.10 1.88 1.88 53 988.8
20260506010422 10 0.0 0.0 0.10 1.88 1.88 52 988.8
20260506005921 10 0.0 0.0 0.10 1.85 1.85 53 988.8
20260506005422 10 0.0 0.0 0.13 1.85 1.85 53 988.8
20260506004922 10 0.0 0.0 0.13 1.83 1.83 53 988.8
20260506004421 10 338 1.6 3.2 0.13 1.83 1.83 53 988.9
20260506003921 10 0.0 1.6 0.15 1.83 1.83 52 988.9
20260506003523 10 338 1.6 4.8 0.15 1.80 1.80 52 989.0
20260506003001 10 0.0 0.0 0.15 1.80 1.80 52 989.0
20260506002421 10 0.0 3.2 0.15 1.80 1.80 52 988.9
20260506001921 10 338 3.2 3.2 0.18 1.80 1.80 52 988.9
20260506001421 10 338 1.6 1.6 0.15 1.78 1.78 52 988.9
20260506000941 10 338 1.6 3.2 0.18 1.78 1.78 52 988.9
20260506000423 10 0.0 1.6 0.18 1.78 1.78 51 988.8
20260505235918 10 338 1.6 4.8 0.15 1.75 1.75 51 988.8
20260505235421 10 338 1.6 4.8 0.13 1.73 1.73 51 988.8
20260505234920 10 338 4.8 6.4 0.10 1.70 1.70 52 988.8
20260505234421 10 0 4.8 6.4 0.10 1.70 1.70 51 988.7
20260505233920 10 338 6.4 9.7 0.08 1.68 1.68 51 988.6
20260505233420 10 338 4.8 8.0 0.05 1.65 1.65 51 988.6
20260505232920 10 0 3.2 4.8 0.08 1.65 1.65 51 988.5
20260505232419 10 0 6.4 9.7 0.15 1.65 1.65 51 988.6
20260505231921 11 0 12.9 14.5 0.13 1.63 1.63 51 988.6
20260505231421 11 0 8.0 12.9 0.15 1.63 1.63 51 988.6
20260505230921 11 0 11.3 14.5 0.18 1.60 1.60 51 988.5
20260505230421 11 23 11.3 14.5 0.25 1.60 1.60 51 988.5
20260505225920 10 0 12.9 16.1 0.30 1.60 1.60 51 988.6
20260505225438 11 0 11.3 14.5 0.38 1.60 1.60 51 988.7
20260505224921 10 0 9.7 12.9 0.41 1.60 1.60 51 988.7
20260505224418 11 23 9.7 12.9 0.46 1.60 1.60 51 988.7
20260505223920 11 0 14.5 14.5 0.51 1.60 1.60 51 988.8
20260505223420 11 0 9.7 12.9 0.58 1.60 1.60 51 988.9
20260505222918 11 0 9.7 12.9 0.64 1.57 1.57 51 988.8
20260505222420 10 0.0 1.6 0.58 1.50 1.50 51 989.1
20260505221918 10 0 3.2 6.4 0.61 1.50 1.50 51 989.0
20260505221420 11 338 4.8 6.4 0.58 1.47 1.47 51 988.8
20260505220938 10 338 4.8 8.0 0.56 1.42 1.42 51 988.7
20260505220420 10 338 6.4 8.0 0.51 1.35 1.35 51 988.8
20260505215920 11 315 4.8 6.4 0.46 1.30 1.30 50 988.7
20260505215418 11 338 9.7 14.5 0.41 1.22 1.22 51 988.6
20260505214922 11 338 11.3 16.1 0.38 1.19 1.19 51 988.5
20260505214441 11 0 12.9 17.7 0.36 1.14 1.14 51 988.4
20260505213918 11 0 17.7 19.3 0.33 1.09 1.09 51 988.3
20260505213418 11 0 14.5 17.7 0.25 1.02 1.02 51 988.4
20260505212917 11 315 3.2 4.8 0.20 0.94 0.94 50 988.5
20260505212419 11 338 3.2 8.0 0.20 0.91 0.91 50 988.3
20260505211918 11 338 3.2 4.8 0.18 0.89 0.89 50 988.0
20260505211419 11 338 4.8 8.0 0.20 0.89 0.89 50 988.1
20260505210938 11 315 4.8 6.4 0.20 0.86 0.86 50 988.1
20260505210418 11 315 3.2 6.4 0.20 0.84 0.84 50 988.2
20260505205918 11 338 6.4 9.7 0.23 0.84 0.84 50 988.2
20260505205418 11 270 3.2 6.4 0.25 0.81 0.81 50 988.1
20260505204918 11 338 6.4 9.7 0.30 0.81 0.81 50 988.3
20260505204418 11 293 8.0 16.1 0.33 0.79 0.79 50 988.2
20260505203918 11 293 8.0 9.7 0.33 0.76 0.76 50 988.2
20260505203418 11 293 9.7 14.5 0.36 0.76 0.76 50 988.4
20260505202938 11 270 11.3 14.5 0.36 0.74 0.74 50 988.4
20260505202417 12 293 11.3 16.1 0.33 0.71 0.71 50 988.5
20260505201919 12 270 12.9 17.7 0.36 0.71 0.71 50 988.3
20260505201418 12 293 11.3 14.5 0.33 0.69 0.69 50 988.4
20260505200918 12 293 12.9 17.7 0.33 0.66 0.66 50 988.5
20260505200418 12 270 14.5 19.3 0.36 0.64 0.64 50 988.6
20260505195939 13 270 8.0 12.9 0.36 0.61 0.61 50 988.6
20260505195418 13 270 14.5 19.3 0.33 0.56 0.56 50 988.6
20260505194918 13 270 16.1 20.9 0.30 0.51 0.51 50 988.5
20260505194419 13 270 11.3 12.9 0.28 0.46 0.46 50 988.5
20260505193920 13 270 6.4 9.7 0.28 0.43 0.43 50 988.4
20260505193440 13 270 4.8 4.8 0.28 0.41 0.41 50 988.4
20260505192921 13 270 4.8 6.4 0.28 0.38 0.38 50 988.4
20260505192419 13 270 8.0 9.7 0.30 0.38 0.38 50 988.3
20260505191920 13 270 6.4 9.7 0.30 0.36 0.36 50 988.3
20260505191418 13 248 6.4 6.4 0.30 0.36 0.36 50 988.2
20260505190919 13 248 6.4 6.4 0.30 0.33 0.33 50 988.3
20260505190420 14 248 4.8 4.8 0.25 0.28 0.28 50 988.2
20260505185921 14 248 6.4 11.3 0.25 0.25 0.25 50 988.2
20260505185420 14 270 4.8 4.8 0.23 0.23 0.23 50 988.2
20260505184920 14 270 4.8 6.4 0.20 0.20 0.20 50 988.1
20260505184421 14 270 3.2 4.8 0.18 0.18 0.18 51 988.1
20260505183917 14 270 3.2 4.8 0.15 0.15 0.15 51 988.1
20260505183439 14 270 4.8 6.4 0.13 0.13 0.13 51 988.1
20260505182938 15 270 4.8 6.4 0.10 0.10 0.10 52 988.1
20260505182441 15 270 4.8 6.4 0.08 0.08 0.08 53 988.2
20260505181920 15 270 9.7 11.3 0.05 0.05 0.05 54 988.2
20260505181420 15 270 9.7 12.9 0.05 0.05 0.05 54 988.1
20260505180920 15 270 11.3 14.5 0.03 0.03 0.03 55 988.1
20260505180418 15 270 11.3 14.5 0.03 0.03 0.03 56 988.0
20260505175938 16 270 11.3 14.5 0.00 0.00 0.00 56 988.0
20260505175420 16 248 11.3 12.9 0.00 0.00 0.00 56 988.0
20260505174919 16 248 11.3 12.9 0.00 0.00 0.00 56 988.0
20260505174420 16 248 12.9 14.5 0.00 0.00 0.00 55 987.9
20260505173920 16 248 12.9 14.5 0.00 0.00 0.00 55 988.0
20260505173422 16 248 14.5 16.1 0.00 0.00 0.00 55 988.0
20260505172920 16 248 9.7 12.9 0.00 0.00 0.00 55 988.0
20260505172417 16 225 11.3 16.1 0.00 0.00 0.00 54 988.0
20260505171940 16 225 8.0 14.5 0.00 0.00 0.00 54 988.0
20260505171420 16 248 12.9 19.3 0.00 0.00 0.00 54 987.9
20260505170921 16 225 8.0 12.9 0.00 0.00 0.00 54 987.9
20260505170417 16 248 12.9 19.3 0.00 0.00 0.00 54 987.9
20260505165917 16 225 14.5 17.7 0.00 0.00 0.00 53 987.8
20260505165418 16 225 17.7 22.5 0.00 0.00 0.00 53 987.9
20260505164917 16 225 22.5 25.7 0.00 0.00 0.00 54 987.8
20260505164420 16 248 17.7 20.9 0.00 0.00 0.00 53 987.8
20260505163920 16 225 22.5 24.1 0.00 0.00 0.00 53 987.8
20260505163417 16 225 19.3 24.1 0.00 0.00 0.00 54 987.9
20260505162919 16 225 20.9 27.4 0.00 0.00 0.00 53 987.9
20260505162419 16 248 20.9 24.1 0.00 0.00 0.00 54 987.9
20260505161918 16 248 19.3 29.0 0.00 0.00 0.00 53 988.0
20260505161419 16 248 14.5 19.3 0.00 0.00 0.00 53 987.8
20260505160940 16 248 17.7 24.1 0.00 0.00 0.00 54 987.8
20260505160417 16 248 16.1 20.9 0.00 0.00 0.00 53 987.8
20260505152917 17 248 22.5 30.6 0.00 0.00 0.00 52 987.7
20260505152418 17 248 24.1 30.6 0.00 0.00 0.00 51 987.5
20260505151918 17 248 19.3 25.7 0.00 0.00 0.00 51 987.3
20260505151417 17 248 17.7 24.1 0.00 0.00 0.00 50 987.2
20260505150917 18 225 17.7 24.1 0.00 0.00 0.00 50 987.2
20260505150417 18 248 16.1 22.5 0.00 0.00 0.00 50 986.9
20260505140417 17 248 17.7 27.4 0.00 0.00 0.00 50 985.7